This demonstration page uses our WeatherBlox Daily Observations layout. Learn more.

Left ArrowRight Arrow

Hourly Observations for June 5, 2021

Temp ( °F °C ) Dew Point ( °F °C ) Humidity (%) Winds ( mph kmh ) Pressure ( in mb ) Visibility ( mi km ) Precip ( " mm )
12:15 am 00:15 Clear 66 19 59 15 78 78 W 5 7 30.01 1016 10 16 N/A
12:35 am 00:35 Clear 66 19 59 15 78 78 W 5 7 30.01 1016 10 16 N/A
12:55 am 00:55 Clear 66 19 59 15 78 78 WSW 5 7 30.01 1016 10 16 N/A
1:15 am 01:15 Clear 66 19 59 15 78 78 WSW 3 6 30.01 1016 10 16 N/A
1:35 am 01:35 Clear 64 18 59 15 83 83 W 5 7 30.01 1016 10 16 N/A
1:55 am 01:55 Clear 64 18 59 15 83 83 W 5 7 30.01 1016 10 16 N/A
2:15 am 02:15 Clear 64 18 59 15 83 83 W 5 7 30.00 1016 10 16 N/A
2:35 am 02:35 Clear 64 18 59 15 83 83 W 6 9 30.00 1016 10 16 N/A
2:55 am 02:55 Clear 66 19 59 15 78 78 WSW 5 7 30.00 1016 10 16 N/A
3:15 am 03:15 Clear 66 19 59 15 78 78 W 5 7 30.00 1016 10 16 N/A
3:35 am 03:35 Clear 66 19 59 15 78 78 W 3 6 30.00 1016 10 16 N/A
3:55 am 03:55 Clear 66 19 59 15 78 78 WSW 3 6 30.00 1016 10 16 N/A
4:15 am 04:15 Clear 66 19 59 15 78 78 WSW 3 6 30.00 1016 10 16 N/A
4:35 am 04:35 Clear 66 19 59 15 78 78 SSW 3 6 30.00 1016 10 16 N/A
4:55 am 04:55 Clear 64 18 59 15 83 83 SW 6 9 30.01 1016 10 16 N/A
5:15 am 05:15 Clear 64 18 59 15 83 83 SSW 3 6 30.01 1016 10 16 N/A
5:35 am 05:35 Clear 64 18 59 15 83 83 S 5 7 30.01 1016 10 16 N/A
5:55 am 05:55 Sunny 64 18 59 15 83 83 SSW 5 7 30.02 1017 10 16 N/A
6:15 am 06:15 Sunny 64 18 59 15 83 83 SSW 6 9 30.03 1017 10 16 N/A
6:35 am 06:35 Sunny 64 18 59 15 83 83 SW 5 7 30.03 1017 10 16 N/A
6:55 am 06:55 Sunny 66 19 59 15 78 78 N N/A 30.04 1017 10 16 N/A
7:15 am 07:15 Sunny 64 18 61 16 88 88 N N/A 30.04 1017 10 16 N/A
7:35 am 07:35 Sunny 68 20 59 15 73 73 N N/A 30.04 1017 10 16 N/A
7:55 am 07:55 Sunny 70 21 61 16 73 73 N N/A 30.05 1018 10 16 N/A
8:15 am 08:15 Sunny 72 22 61 16 69 69 N N/A 30.05 1018 10 16 N/A
8:35 am 08:35 Sunny 75 24 63 17 65 65 N N/A 30.05 1017 10 16 N/A
8:55 am 08:55 Sunny 77 25 63 17 61 61 WNW 3 6 30.04 1017 10 16 N/A
9:15 am 09:15 Sunny 79 26 64 18 61 61 WNW 14 22 30.04 1017 10 16 N/A
9:35 am 09:35 Sunny 81 27 63 17 54 54 WNW 12 19 30.04 1017 10 16 N/A
9:55 am 09:55 Sunny 81 27 63 17 54 54 WNW 18 30 30.04 1017 10 16 N/A
10:15 am 10:15 Sunny 81 27 63 17 54 54 NW 12 19 30.04 1017 10 16 N/A
10:35 am 10:35 Sunny 82 28 63 17 51 51 NW 13 20 30.04 1017 10 16 N/A
10:55 am 10:55 Sunny 82 28 63 17 51 51 WNW 10 17 30.05 1018 10 16 N/A
11:15 am 11:15 Sunny 82 28 64 18 55 55 WNW 7 11 30.05 1018 10 16 N/A
11:35 am 11:35 Sunny 82 28 63 17 51 51 NNW 7 11 30.05 1018 10 16 N/A
11:55 am 11:55 Sunny 86 30 63 17 46 46 N 13 20 30.04 1017 10 16 N/A
12:15 pm 12:15 Sunny 86 30 64 18 49 49 NW 7 11 30.04 1017 10 16 N/A
12:35 pm 12:35 Sunny 86 30 64 18 49 49 WNW 9 15 30.03 1017 10 16 N/A
12:55 pm 12:55 Sunny 86 30 63 17 46 46 NNW 3 6 30.03 1017 10 16 N/A
1:15 pm 13:15 Sunny 88 31 63 17 43 43 NNW 7 11 30.03 1017 10 16 N/A
1:35 pm 13:35 Sunny 88 31 63 17 43 43 SSW 5 7 30.02 1016 10 16 N/A
1:55 pm 13:55 Sunny 88 31 63 17 43 43 WNW 7 11 30.02 1016 10 16 N/A
2:15 pm 14:15 Sunny 88 31 63 17 43 43 WNW 8 13 30.01 1016 10 16 N/A
2:35 pm 14:35 Sunny 90 32 63 17 41 41 W 3 6 30.01 1016 10 16 N/A
2:55 pm 14:55 Sunny 90 32 61 16 38 38 W 7 11 30.00 1016 10 16 N/A
3:15 pm 15:15 Partly Cloudy 90 32 63 17 41 41 W 7 11 30.00 1016 10 16 N/A
3:35 pm 15:35 Partly Cloudy 91 33 63 17 38 38 WSW 7 11 29.99 1016 10 16 N/A
3:55 pm 15:55 Sunny 91 33 63 17 38 38 WSW 6 9 29.98 1015 10 16 N/A
4:15 pm 16:15 Sunny 91 33 63 17 38 38 SW 8 13 29.98 1015 10 16 N/A
4:35 pm 16:35 Sunny 90 32 61 16 38 38 SW 9 15 29.99 1015 10 16 N/A
4:55 pm 16:55 Sunny 90 32 61 16 38 38 SW 7 11 29.99 1015 10 16 N/A
5:15 pm 17:15 Partly Cloudy 90 32 61 16 38 38 SW 10 17 29.98 1015 10 16 N/A
5:35 pm 17:35 Sunny 90 32 63 17 41 41 SW 14 22 29.98 1015 10 16 N/A
5:55 pm 17:55 Sunny 90 32 63 17 41 41 SW 10 17 29.98 1015 10 16 N/A
6:15 pm 18:15 Sunny 90 32 63 17 41 41 SW 9 15 29.98 1015 10 16 N/A
6:35 pm 18:35 Sunny 88 31 63 17 43 43 SSW 10 17 29.98 1015 10 16 N/A
6:55 pm 18:55 Sunny 88 31 61 16 40 40 SW 8 13 29.99 1015 10 16 N/A
7:15 pm 19:15 Sunny 88 31 61 16 40 40 SSW 9 15 29.99 1015 10 16 N/A
7:35 pm 19:35 Sunny 86 30 61 16 43 43 SSW 8 13 29.99 1016 10 16 N/A
7:55 pm 19:55 Sunny 86 30 63 17 46 46 SSW 6 9 29.99 1016 10 16 N/A
8:15 pm 20:15 Sunny 82 28 63 17 51 51 SSW 6 9 30.00 1016 10 16 N/A
8:35 pm 20:35 Clear 82 28 63 17 51 51 SSW 3 6 30.00 1016 10 16 N/A
8:55 pm 20:55 Clear 81 27 63 17 54 54 SSW 3 6 30.01 1016 10 16 N/A
9:15 pm 21:15 Clear 81 27 63 17 54 54 SSW 3 6 30.01 1016 10 16 N/A
9:35 pm 21:35 Clear 81 27 63 17 54 54 SSW 5 7 30.03 1017 10 16 N/A
9:55 pm 21:55 Clear 79 26 63 17 58 58 SSW 5 7 30.03 1017 10 16 N/A
10:15 pm 22:15 Clear 77 25 63 17 61 61 SSW 3 6 30.04 1017 10 16 N/A
10:35 pm 22:35 Clear 75 24 63 17 65 65 SSW 3 6 30.05 1017 10 16 N/A
10:55 pm 22:55 Clear 75 24 63 17 65 65 SSW 5 7 30.05 1017 10 16 N/A
11:15 pm 23:15 Clear 75 24 63 17 65 65 SSW 6 9 30.05 1017 10 16 N/A
11:35 pm 23:35 Clear 75 24 63 17 65 65 SW 5 7 30.05 1017 10 16 N/A
11:55 pm 23:55 Clear 73 23 63 17 69 69 SW 3 6 30.05 1018 10 16 N/A

Powered by AerisWeather